Location: DARK SKY Beskydy - Park tmavé oblohy, www.darkskybeskydy.cz
(49.4926°N, 18.5016°E)
Time: 03:24:13
(UTC+02:00)

A-11 Canister half - Pass Details

Date: 22 February 2024
Orbit: 1513 x 1686 km, 47.2° (Epoch: 24 April)

Event Time Altitude Azimuth Distance (km) Brightness Sun altitude
Rises 02:34:25 0° 226° (SW) 4,931 - -39.5°
Reaches altitude 10° 02:37:42 10° 222° (SW) 3,939 - -39.1°
Maximum altitude 02:47:21 52° 150° (SSE) 1,993 - -37.8°
Exits shadow 02:47:29 52° 147° (SSE) 1,993 9.4 -37.8°
Drops below altitude 10° 02:56:47 10° 78° (ENE) 3,857 11.8 -36.5°
Sets 02:59:57 0° 74° (ENE) 4,822 12.5 -36.1°
